IW1CBG-23 Weather Reports


Display with metric or nautical units.
time (UTC)temp
F
wind
direction
speed
MPH
gust
MPH
rain 1hr
in
rain 24hr
in
rain mn
in
humidity
%
barometer
mb
20260508004548 48 0.0 0.0 0.00 0.00 0.00 99 1009.2
20260508002510 48 0.0 0.0 0.00 0.00 0.00 99 1009.4
20260508000434 49 0.0 0.0 0.00 0.00 0.00 99 1009.3
20260507234356 49 0.0 0.0 0.00 0.00 0.00 99 1009.4
20260507232319 49 0.0 0.0 0.00 0.00 0.00 99 1009.5
20260507230241 50 0.0 0.0 0.00 0.00 0.00 99 1009.7
20260507220049 49 0.0 0.0 0.00 0.00 0.00 99 1009.5
20260507214011 49 0.0 0.0 0.00 0.00 0.00 99 1009.3
20260507211933 50 0.0 0.0 0.00 0.00 0.00 99 1009.3
20260507205855 50 0.0 0.0 0.00 0.00 0.00 99 1009.2
20260507203817 50 0.0 0.0 0.00 0.00 0.00 99 1009.3
20260507201741 50 0.0 0.0 0.00 0.00 0.00 99 1009.3
20260507195703 49 0.0 0.0 0.00 0.00 0.00 99 1009.2
20260507193624 48 0.0 0.0 0.00 0.00 0.00 99 1008.9
20260507191547 48 0.0 0.0 0.00 0.00 0.00 99 1008.6
20260507185510 49 0.0 0.0 0.00 0.00 0.00 99 1008.3
20260507183434 49 0.0 0.0 0.00 0.00 0.00 99 1008.3
20260507175319 49 0.0 0.0 0.00 0.00 0.00 99 1008.1
20260507173241 49 0.0 0.0 0.00 0.00 0.00 99 1008.0
20260507171205 49 0.0 0.0 0.00 0.00 0.00 99 1008.1
20260507165127 50 0.0 0.0 0.00 0.00 0.00 99 1007.9
20260507163050 51 0.0 0.0 0.00 0.00 0.00 99 1007.8
20260507161012 50 0.0 0.0 0.00 0.00 0.00 99 1007.8
20260507152858 50 0.0 0.0 0.00 0.00 0.00 99 1007.8
20260507150821 51 0.0 0.0 0.00 0.00 0.00 99 1007.8
20260507144745 51 0.0 0.0 0.00 0.00 0.00 99 1007.7
20260507142711 53 0.0 0.0 0.00 0.00 0.00 99 1007.7
20260507140637 55 0.0 0.0 0.00 0.00 0.00 99 1007.8
20260507134554 54 0.0 0.0 0.00 0.00 0.00 99 1008.0
20260507132516 52 0.0 0.0 0.00 0.00 0.00 99 1008.3
20260507130440 56 0.0 0.0 0.00 0.00 0.00 99 1008.4
20260507122335 58 0.0 0.0 0.00 0.00 0.00 97 1008.5
20260507120246 57 0.0 0.0 0.00 0.00 0.00 99 1008.2
20260507114211 54 0.0 0.0 0.00 0.00 0.00 99 1008.4
20260507112141 60 0.0 0.0 0.00 0.00 0.00 99 1008.5
20260507110100 56 0.0 0.0 0.00 0.00 0.00 99 1008.8
20260507104021 54 0.0 0.0 0.00 0.00 0.00 99 1008.8
20260507101944 53 0.0 0.0 0.00 0.00 0.00 99 1008.9
20260507095905 53 0.0 0.0 0.00 0.00 0.00 99 1008.8
20260507093828 52 0.0 0.0 0.00 0.00 0.00 99 1008.7
20260507091749 51 0.0 0.0 0.00 0.00 0.00 99 1008.6
20260507085712 52 0.0 0.0 0.00 0.00 0.00 99 1008.5
20260507083636 52 0.0 0.0 0.00 0.00 0.00 99 1008.3
20260507081555 52 0.0 0.0 0.00 0.00 0.00 99 1008.2
20260507075518 49 0.0 0.0 0.00 0.00 0.00 99 1008.1
20260507073437 48 0.0 0.0 0.00 0.00 0.00 99 1008.0
20260507071400 48 0.0 0.0 0.00 0.00 0.00 99 1007.9
20260507065321 48 0.0 0.0 0.00 0.00 0.00 99 1007.8
20260507063243 48 0.0 0.0 0.00 0.00 0.00 99 1007.6
20260507061204 46 0.0 0.0 0.00 0.00 0.00 99 1007.5
20260507055126 46 0.0 0.0 0.00 0.00 0.00 99 1007.3
20260507053103 46 0.0 0.0 0.00 0.00 0.00 99 1007.1
20260507051010 45 0.0 0.0 0.00 0.00 0.00 99 1006.8
20260507044933 45 0.0 0.0 0.00 0.00 0.00 99 1006.6
20260507042856 45 0.0 0.0 0.00 0.00 0.00 99 1006.5
20260507040818 45 0.0 0.0 0.00 0.00 0.00 99 1006.3
20260507034741 45 0.0 0.0 0.00 0.00 0.00 99 1006.2
20260507032703 45 0.0 0.0 0.00 0.00 0.00 99 1006.1
20260507030625 45 0.0 0.0 0.00 0.00 0.00 99 1006.0
20260507024548 45 0.0 0.0 0.00 0.00 0.00 99 1006.0
20260507022511 45 0.0 0.0 0.00 0.00 0.00 99 1006.0
20260507020433 45 0.0 0.0 0.00 0.00 0.00 99 1005.9
20260507014356 45 0.0 0.0 0.00 0.00 0.00 99 1005.8
20260507012320 45 0.0 0.0 0.00 0.00 0.00 99 1005.8
20260507010243 46 0.0 0.0 0.00 0.00 0.00 99 1005.7